Location: Home
(42.5358°N, 72.7383°W)
Time: 07:30:36
(UTC-04:00)

Envisat - Visible Passes

Search period start: 23 October 2021 00:00
Search period end: 02 November 2021 00:00
Orbit: 764 x 766 km, 98.2° (Epoch: 22 October)

Date Brightness Start Highest point End Pass type
(mag) Time Alt. Az. Time Alt. Az. Time Alt. Az.
23 Oct 3.1 05:58:14 10° NNE 06:03:21 81° ESE 06:08:26 10° S visible
24 Oct 4.6 05:21:42 10° NNE 05:26:24 36° E 05:31:03 10° SSE visible
24 Oct 6.0 18:17:17 10° SW 18:20:53 19° W 18:24:31 10° NW visible
25 Oct 5.8 04:46:01 10° NE 04:49:14 17° E 04:52:27 10° SE visible
25 Oct 3.0 06:23:38 10° N 06:28:38 59° WNW 06:33:36 10° SSW visible
26 Oct 3.5 05:46:45 10° NNE 05:51:49 64° ESE 05:56:50 10° S visible
26 Oct 6.7 18:45:22 10° W 18:46:31 11° W 18:47:40 10° WNW visible
27 Oct 5.0 05:10:24 10° NE 05:14:48 29° E 05:19:10 10° SSE visible
28 Oct 6.1 04:35:17 10° ENE 04:37:34 13° E 04:39:52 10° ESE visible
28 Oct 2.9 06:12:03 10° N 06:17:08 75° WNW 06:22:11 10° SSW visible
29 Oct 3.9 05:35:19 10° NNE 05:40:15 50° E 05:45:10 10° S visible
29 Oct 6.2 18:32:13 10° WSW 18:34:51 14° W 18:37:29 10° WNW visible
30 Oct 5.4 04:59:11 10° NE 05:03:10 23° E 05:07:08 10° SE visible
30 Oct 3.3 06:37:33 10° N 06:42:22 43° WNW 06:47:08 10° SW visible
31 Oct 3.0 06:00:30 10° NNE 06:05:37 86° ESE 06:10:42 10° SSW visible
01 Nov 4.4 05:23:55 10° NNE 05:28:41 39° E 05:33:24 10° SSE visible
01 Nov 6.0 18:19:45 10° SW 18:23:11 18° W 18:26:37 10° NW visible
